Time,TemperatureF,DewpointF,PressureIn,WindDirection,WindDirectionDegrees,WindSpeedMPH,WindSpeedGustMPH,Humidity,HourlyPrecipIn,Conditions,Clouds,dailyrainin,SoftwareType,DateUTC
2013-01-14 00:02:00,33.1,24.0,30.21,North,1,8.0,18.0,68,0.00,,,0.00,weatherlink.com 1.10,2013-01-14 06:02:00,
2013-01-14 00:17:00,32.9,23.0,30.22,NNE,23,11.0,16.0,68,0.00,,,0.00,weatherlink.com 1.10,2013-01-14 06:17:00,
2013-01-14 00:32:00,32.6,23.0,30.21,NNW,343,6.0,14.0,68,0.00,,,0.00,weatherlink.com 1.10,2013-01-14 06:32:00,
2013-01-14 00:47:00,32.4,23.0,30.21,North,355,4.0,15.0,68,0.00,,,0.00,weatherlink.com 1.10,2013-01-14 06:47:00,
2013-01-14 01:02:00,32.2,23.0,30.23,NNE,23,5.0,11.0,69,0.00,,,0.00,weatherlink.com 1.10,2013-01-14 07:02:00,
2013-01-14 01:17:00,32.0,23.0,30.23,NNW,327,6.0,13.0,69,0.00,,,0.00,weatherlink.com 1.10,2013-01-14 07:17:00,
2013-01-14 01:32:00,31.8,23.0,30.24,North,358,7.0,11.0,70,0.00,,,0.00,weatherlink.com 1.10,2013-01-14 07:32:00,
2013-01-14 01:47:00,31.5,23.0,30.26,NNE,16,3.0,9.0,71,0.00,,,0.00,weatherlink.com 1.10,2013-01-14 07:47:00,
2013-01-14 02:02:00,30.9,23.0,30.27,NNE,12,3.0,7.0,72,0.00,,,0.00,weatherlink.com 1.10,2013-01-14 08:02:00,
2013-01-14 02:17:00,30.9,23.0,30.27,North,4,3.0,8.0,73,0.00,,,0.00,weatherlink.com 1.10,2013-01-14 08:17:00,
2013-01-14 02:32:00,30.8,23.0,30.28,North,8,3.0,8.0,73,0.00,,,0.00,weatherlink.com 1.10,2013-01-14 08:32:00,
2013-01-14 02:47:00,30.7,23.0,30.29,North,1,3.0,7.0,73,0.00,,,0.00,weatherlink.com 1.10,2013-01-14 08:47:00,
2013-01-14 03:02:00,30.6,23.0,30.29,North,10,4.0,7.0,74,0.00,,,0.00,weatherlink.com 1.10,2013-01-14 09:02:00,
2013-01-14 03:17:00,30.9,23.0,30.28,NNW,342,5.0,10.0,73,0.00,,,0.00,weatherlink.com 1.10,2013-01-14 09:17:00,
2013-01-14 03:33:00,31.3,24.0,30.28,North,9,6.0,12.0,73,0.00,,,0.00,weatherlink.com 1.10,2013-01-14 09:33:00,
2013-01-14 03:48:00,31.4,23.0,30.27,North,353,4.0,13.0,72,0.00,,,0.00,weatherlink.com 1.10,2013-01-14 09:48:00,
2013-01-14 04:03:00,31.5,23.0,30.28,North,360,7.0,12.0,71,0.00,,,0.00,weatherlink.com 1.10,2013-01-14 10:03:00,
2013-01-14 04:18:00,31.5,23.0,30.27,North,357,7.0,14.0,70,0.00,,,0.00,weatherlink.com 1.10,2013-01-14 10:18:00,
2013-01-14 04:33:00,31.6,23.0,30.27,NNE,17,7.0,13.0,70,0.00,,,0.00,weatherlink.com 1.10,2013-01-14 10:33:00,
2013-01-14 04:48:00,31.5,22.0,30.27,North,355,7.0,14.0,69,0.00,,,0.00,weatherlink.com 1.10,2013-01-14 10:48:00,
2013-01-14 05:03:00,31.5,22.0,30.27,NNW,345,7.0,14.0,68,0.00,,,0.00,weatherlink.com 1.10,2013-01-14 11:03:00,
2013-01-14 05:18:00,31.5,22.0,30.27,NE,41,7.0,12.0,69,0.00,,,0.00,weatherlink.com 1.10,2013-01-14 11:18:00,
2013-01-14 05:33:00,31.5,22.0,30.27,NNE,23,4.0,14.0,68,0.00,,,0.00,weatherlink.com 1.10,2013-01-14 11:33:00,
2013-01-14 05:48:00,31.6,22.0,30.27,NE,54,4.0,9.0,69,0.00,,,0.00,weatherlink.com 1.10,2013-01-14 11:48:00,
2013-01-14 06:03:00,31.5,22.0,30.26,NNE,33,3.0,14.0,67,0.00,,,0.00,weatherlink.com 1.10,2013-01-14 12:03:00,
2013-01-14 06:18:00,31.6,22.0,30.27,NE,41,6.0,12.0,68,0.00,,,0.00,weatherlink.com 1.10,2013-01-14 12:18:00,
2013-01-14 06:33:00,31.5,22.0,30.27,North,6,11.0,14.0,68,0.00,,,0.00,weatherlink.com 1.10,2013-01-14 12:33:00,
2013-01-14 06:48:00,31.2,22.0,30.27,North,349,4.0,12.0,69,0.00,,,0.00,weatherlink.com 1.10,2013-01-14 12:48:00,
2013-01-14 07:03:00,30.9,22.0,30.28,NNE,23,7.0,11.0,70,0.00,,,0.00,weatherlink.com 1.10,2013-01-14 13:03:00,
2013-01-14 07:18:00,30.6,22.0,30.28,NE,40,4.0,11.0,71,0.00,,,0.00,weatherlink.com 1.10,2013-01-14 13:18:00,
2013-01-14 07:33:00,30.5,22.0,30.29,NNE,16,2.0,11.0,70,0.00,,,0.00,weatherlink.com 1.10,2013-01-14 13:33:00,
2013-01-14 07:48:00,30.4,22.0,30.29,NE,53,3.0,8.0,71,0.00,,,0.00,weatherlink.com 1.10,2013-01-14 13:48:00,
2013-01-14 08:03:00,30.5,22.0,30.30,NNE,23,4.0,8.0,72,0.00,,,0.00,weatherlink.com 1.10,2013-01-14 14:03:00,
2013-01-14 08:18:00,30.8,22.0,30.30,NNE,33,6.0,10.0,71,0.00,,,0.00,weatherlink.com 1.10,2013-01-14 14:18:00,
2013-01-14 08:33:00,31.1,23.0,30.31,NNE,19,4.0,11.0,71,0.00,,,0.00,weatherlink.com 1.10,2013-01-14 14:33:00,
2013-01-14 08:48:00,31.6,23.0,30.30,North,4,6.0,12.0,71,0.00,,,0.00,weatherlink.com 1.10,2013-01-14 14:48:00,
2013-01-14 09:03:00,32.2,23.0,30.30,North,10,10.0,14.0,70,0.00,,,0.00,weatherlink.com 1.10,2013-01-14 15:03:00,
2013-01-14 09:18:00,32.7,24.0,30.29,NNE,33,11.0,14.0,70,0.00,,,0.00,weatherlink.com 1.10,2013-01-14 15:18:00,
2013-01-14 09:33:00,33.6,25.0,30.30,North,3,14.0,14.0,70,0.00,,,0.00,weatherlink.com 1.10,2013-01-14 15:33:00,
2013-01-14 09:48:00,33.9,25.0,30.30,NNE,23,6.0,14.0,70,0.00,,,0.00,weatherlink.com 1.10,2013-01-14 15:48:00,
2013-01-14 10:03:00,34.4,25.0,30.31,North,9,10.0,12.0,69,0.00,,,0.00,weatherlink.com 1.10,2013-01-14 16:03:00,
2013-01-14 10:18:00,35.5,26.0,30.31,NE,37,6.0,12.0,69,0.00,,,0.00,weatherlink.com 1.10,2013-01-14 16:18:00,
2013-01-14 10:33:00,36.2,26.0,30.30,NE,45,8.0,13.0,67,0.00,,,0.00,weatherlink.com 1.10,2013-01-14 16:33:00,
2013-01-14 10:48:00,36.8,26.0,30.30,NNE,23,11.0,17.0,65,0.00,,,0.00,weatherlink.com 1.10,2013-01-14 16:48:00,
2013-01-14 11:03:00,37.2,26.0,30.29,NNE,33,10.0,13.0,65,0.00,,,0.00,weatherlink.com 1.10,2013-01-14 17:03:00,
2013-01-14 11:18:00,38.5,26.0,30.29,NNE,18,11.0,16.0,62,0.00,,,0.00,weatherlink.com 1.10,2013-01-14 17:18:00,
2013-01-14 11:33:00,39.0,27.0,30.28,NNE,33,8.0,13.0,62,0.00,,,0.00,weatherlink.com 1.10,2013-01-14 17:33:00,
2013-01-14 11:48:00,40.0,27.0,30.27,NNE,23,4.0,14.0,60,0.00,,,0.00,weatherlink.com 1.10,2013-01-14 17:48:00,
2013-01-14 12:03:00,41.2,27.0,30.26,North,352,6.0,12.0,58,0.00,,,0.00,weatherlink.com 1.10,2013-01-14 18:03:00,
2013-01-14 12:19:00,41.9,28.0,30.25,North,8,6.0,12.0,58,0.00,,,0.00,weatherlink.com 1.10,2013-01-14 18:19:00,
2013-01-14 12:34:00,43.3,27.0,30.24,North,357,6.0,15.0,54,0.00,,,0.00,weatherlink.com 1.10,2013-01-14 18:34:00,
2013-01-14 12:49:00,44.0,28.0,30.23,NNE,28,5.0,12.0,53,0.00,,,0.00,weatherlink.com 1.10,2013-01-14 18:49:00,
2013-01-14 13:04:00,44.2,27.0,30.23,ENE,74,3.0,10.0,52,0.00,,,0.00,weatherlink.com 1.10,2013-01-14 19:04:00,
2013-01-14 13:19:00,45.7,28.0,30.22,North,4,7.0,13.0,50,0.00,,,0.00,weatherlink.com 1.10,2013-01-14 19:19:00,
2013-01-14 13:34:00,45.8,28.0,30.21,NE,52,10.0,12.0,50,0.00,,,0.00,weatherlink.com 1.10,2013-01-14 19:34:00,
2013-01-14 13:49:00,46.9,29.0,30.21,East,85,8.0,12.0,51,0.00,,,0.00,weatherlink.com 1.10,2013-01-14 19:49:00,
2013-01-14 14:04:00,47.7,28.0,30.20,NNE,33,8.0,13.0,47,0.00,,,0.00,weatherlink.com 1.10,2013-01-14 20:04:00,
2013-01-14 14:19:00,47.6,29.0,30.20,ENE,70,5.0,13.0,48,0.00,,,0.00,weatherlink.com 1.10,2013-01-14 20:19:00,
2013-01-14 14:34:00,47.9,28.0,30.19,ENE,63,10.0,15.0,47,0.00,,,0.00,weatherlink.com 1.10,2013-01-14 20:34:00,
2013-01-14 14:49:00,48.0,29.0,30.19,ENE,64,4.0,13.0,49,0.00,,,0.00,weatherlink.com 1.10,2013-01-14 20:49:00,
2013-01-14 15:04:00,48.2,30.0,30.19,ENE,67,5.0,12.0,49,0.00,,,0.00,weatherlink.com 1.10,2013-01-14 21:04:00,
2013-01-14 15:19:00,48.3,28.0,30.19,NE,45,9.0,14.0,46,0.00,,,0.00,weatherlink.com 1.10,2013-01-14 21:19:00,
2013-01-14 15:34:00,48.1,29.0,30.19,NE,48,6.0,10.0,48,0.00,,,0.00,weatherlink.com 1.10,2013-01-14 21:34:00,
2013-01-14 15:49:00,48.1,29.0,30.19,East,89,3.0,14.0,47,0.00,,,0.00,weatherlink.com 1.10,2013-01-14 21:49:00,
2013-01-14 16:04:00,47.3,29.0,30.19,ENE,73,6.0,10.0,49,0.00,,,0.00,weatherlink.com 1.10,2013-01-14 22:04:00,
2013-01-14 16:19:00,46.5,28.0,30.20,NE,55,8.0,10.0,49,0.00,,,0.00,weatherlink.com 1.10,2013-01-14 22:19:00,
2013-01-14 16:34:00,46.0,28.0,30.20,NNE,23,5.0,13.0,50,0.00,,,0.00,weatherlink.com 1.10,2013-01-14 22:34:00,
2013-01-14 16:49:00,45.2,28.0,30.20,NE,51,6.0,14.0,52,0.00,,,0.00,weatherlink.com 1.10,2013-01-14 22:49:00,
2013-01-14 17:04:00,44.5,29.0,30.20,NE,46,7.0,9.0,54,0.00,,,0.00,weatherlink.com 1.10,2013-01-14 23:04:00,
2013-01-14 17:19:00,44.0,28.0,30.21,NE,47,6.0,11.0,54,0.00,,,0.00,weatherlink.com 1.10,2013-01-14 23:19:00,
2013-01-14 17:34:00,43.3,28.0,30.21,NE,39,4.0,9.0,56,0.00,,,0.00,weatherlink.com 1.10,2013-01-14 23:34:00,
2013-01-14 17:49:00,42.5,28.0,30.21,ENE,62,3.0,7.0,58,0.00,,,0.00,weatherlink.com 1.10,2013-01-14 23:49:00,
2013-01-14 18:04:00,42.0,28.0,30.21,NE,56,3.0,9.0,59,0.00,,,0.00,weatherlink.com 1.10,2013-01-15 00:04:00,
2013-01-14 18:19:00,41.4,29.0,30.20,ENE,60,3.0,9.0,61,0.00,,,0.00,weatherlink.com 1.10,2013-01-15 00:19:00,
2013-01-14 18:34:00,40.6,29.0,30.21,ENE,74,4.0,8.0,63,0.00,,,0.00,weatherlink.com 1.10,2013-01-15 00:34:00,
2013-01-14 18:49:00,40.3,28.0,30.21,NNE,33,6.0,8.0,63,0.00,,,0.00,weatherlink.com 1.10,2013-01-15 00:49:00,
2013-01-14 19:04:00,39.6,29.0,30.21,ENE,73,4.0,7.0,65,0.00,,,0.00,weatherlink.com 1.10,2013-01-15 01:04:00,
2013-01-14 19:19:00,39.1,29.0,30.20,ENE,58,2.0,9.0,67,0.00,,,0.00,weatherlink.com 1.10,2013-01-15 01:19:00,
2013-01-14 19:34:00,38.6,29.0,30.20,NNE,19,5.0,6.0,68,0.00,,,0.00,weatherlink.com 1.10,2013-01-15 01:34:00,
2013-01-14 19:49:00,38.5,29.0,30.21,ENE,58,2.0,7.0,68,0.00,,,0.00,weatherlink.com 1.10,2013-01-15 01:49:00,
2013-01-14 20:04:00,38.4,29.0,30.21,North,353,5.0,9.0,69,0.00,,,0.00,weatherlink.com 1.10,2013-01-15 02:04:00,
2013-01-14 20:19:00,38.5,29.0,30.21,NNE,33,5.0,10.0,69,0.00,,,0.00,weatherlink.com 1.10,2013-01-15 02:19:00,
2013-01-14 20:34:00,38.9,29.0,30.21,ENE,59,3.0,11.0,69,0.00,,,0.00,weatherlink.com 1.10,2013-01-15 02:34:00,
2013-01-14 20:49:00,39.2,29.0,30.21,North,6,6.0,10.0,68,0.00,,,0.00,weatherlink.com 1.10,2013-01-15 02:49:00,
2013-01-14 21:04:00,39.3,29.0,30.21,NE,41,6.0,12.0,68,0.00,,,0.00,weatherlink.com 1.10,2013-01-15 03:04:00,
2013-01-14 21:19:00,39.2,30.0,30.20,North,7,3.0,10.0,69,0.00,,,0.00,weatherlink.com 1.10,2013-01-15 03:19:00,
2013-01-14 21:34:00,39.1,30.0,30.20,NNE,33,5.0,10.0,69,0.00,,,0.00,weatherlink.com 1.10,2013-01-15 03:34:00,
2013-01-14 21:49:00,39.0,29.0,30.20,NNE,23,3.0,12.0,68,0.00,,,0.00,weatherlink.com 1.10,2013-01-15 03:49:00,
2013-01-14 22:04:00,38.8,29.0,30.20,NNE,33,6.0,13.0,68,0.00,,,0.00,weatherlink.com 1.10,2013-01-15 04:04:00,
2013-01-14 22:19:00,38.8,29.0,30.20,NE,41,5.0,13.0,68,0.00,,,0.00,weatherlink.com 1.10,2013-01-15 04:19:00,
2013-01-14 22:34:00,38.7,29.0,30.20,NE,52,2.0,9.0,68,0.00,,,0.00,weatherlink.com 1.10,2013-01-15 04:34:00,
2013-01-14 22:49:00,38.7,29.0,30.19,NNE,33,3.0,9.0,69,0.00,,,0.00,weatherlink.com 1.10,2013-01-15 04:49:00,
2013-01-14 23:04:00,38.7,29.0,30.16,ENE,58,4.0,14.0,68,0.00,,,0.00,weatherlink.com 1.10,2013-01-15 05:04:00,
2013-01-14 23:19:00,38.7,29.0,30.15,NE,47,6.0,13.0,68,0.00,,,0.00,weatherlink.com 1.10,2013-01-15 05:19:00,
2013-01-14 23:34:00,38.7,29.0,30.14,NE,43,4.0,14.0,68,0.00,,,0.00,weatherlink.com 1.10,2013-01-15 05:34:00,
2013-01-14 23:49:00,38.8,29.0,30.16,NE,38,5.0,11.0,67,0.00,,,0.00,weatherlink.com 1.10,2013-01-15 05:49:00,